QPF
0.02 0.08 0.12 0.15 0.13 0.04 0.02 0.02 0.01 0.00 0.00 0.00 0.00 0.00 0.00 0.00 0.00 0.00 0.00 0.00 0.00 0.00 0.00 0.00 0.00 0.00 0.04 0.04 0.03 0.04 0.01 0.00 0.00 0.00 0.00 0.00 0.01 0.02 0.01 0.02 0.00 0.00 0.00
0.00 0.10 0.08 0.06 0.06 0.02 0.02 0.01 0.00 0.00 0.00 0.00 0.00 0.00 0.00 0.00 0.00 0.00 0.00 0.00 0.00 0.00 0.00 0.00 0.00 0.00 0.02 0.04 0.09 0.11 0.05 0.07 0.10 0.02 0.00 0.00 0.02 0.15 0.02 0.01 0.00 0.00 0.00
0.00 0.12 0.10 0.10 0.06 0.01 0.01 0.01 0.00 0.00 0.00 0.00 0.00 0.00 0.00 0.00 0.00 0.00 0.00 0.00 0.00 0.00 0.00 0.00 0.00 0.00 0.01 0.03 0.07 0.07 0.02 0.03 0.03 0.00 0.00 0.00 0.00 0.04 0.00 0.00 0.00 0.03 0.02
0.00 0.04 0.04 0.04 0.05 0.01 0.00 0.00 0.00 0.00 0.00 0.00 0.00 0.00 0.00 0.00 0.00 0.00 0.00 0.00 0.00 0.00 0.00 0.00 0.00 0.00 0.01 0.02 0.07 0.13 0.07 0.00 0.00 0.00 0.00 0.00 0.00 0.01 0.00 0.00 0.00 0.00 0.00
0.00 0.00 0.00 0.01 0.02 0.00 0.00 0.00 0.00 0.00 0.00 0.00 0.00 0.00 0.00 0.00 0.00 0.00 0.00 0.00 0.00 0.00 0.00 0.00 0.00 0.00 0.00 0.01 0.08 0.10 0.06 0.01 0.01 0.00 0.00 0.00 0.00 0.08 0.03 0.00 0.00 0.01 0.02
0.00 0.00 0.01 0.01 0.00 0.00 0.00 0.00 0.00 0.00 0.00 0.00 0.00 0.00 0.00 0.00 0.00 0.00 0.00 0.00 0.00 0.00 0.00 0.00 0.00 0.00 0.00 0.00 0.01 0.07 0.04 0.01 0.01 0.00 0.00 0.00 0.00 0.01 0.00 0.02 0.00 0.01 0.00
0.00 0.00 0.00 0.01 0.00 0.00 0.00 0.00 0.00 0.00 0.00 0.00 0.00 0.00 0.00 0.00 0.00 0.00 0.00 0.00 0.00 0.00 0.00 0.00 0.00 0.00 0.01 0.00 0.00 0.02 0.02 0.00 0.01 0.00 0.00 0.00 0.00 0.01 0.01 0.03 0.00 0.00 0.00
0.00 0.00 0.00 0.00 0.00 0.00 0.00 0.00 0.00 0.00 0.00 0.00 0.00 0.00 0.00 0.00 0.00 0.00 0.00 0.00 0.00 0.00 0.00 0.00 0.00 0.00 0.00 0.01 0.00 0.02 0.01 0.00 0.00 0.00 0.00 0.00 0.00 0.02 0.02 0.01 0.00 0.00 0.00
0.00 0.00 0.00 0.00 0.00 0.00 0.00 0.00 0.00 0.00 0.00 0.00 0.00 0.00 0.00 0.00 0.00 0.00 0.00 0.00 0.00 0.00 0.00 0.00 0.00 0.01 0.02 0.01 0.00 0.00 0.00 0.00 0.00 0.00 0.00 0.00 0.00 0.00 0.01 0.00 0.00 0.00 0.00
0.00 0.00 0.00 0.00 0.00 0.00 0.00 0.00 0.00 0.00 0.00 0.00 0.00 0.00 0.00 0.00 0.00 0.00 0.00 0.00 0.00 0.00 0.00 0.00 0.04 0.02 0.01 0.01 0.00 0.00 0.00 0.00 0.00 0.00 0.00 0.00 0.00 0.00 0.00 0.00 0.00 0.00 0.00
0.00 0.00 0.00 0.00 0.00 0.00 0.00 0.00 0.00 0.00 0.00 0.00 0.00 0.00 0.00 0.00 0.00 0.00 0.01 0.01 0.02 0.00 0.00 0.00 0.03 0.02 0.01 0.02 0.00 0.00 0.00 0.00 0.00 0.00 0.00 0.00 0.00 0.00 0.00 0.00 0.00 0.00 0.00
0.00 0.00 0.00 0.00 0.00 0.00 0.00 0.00 0.00 0.00 0.00 0.00 0.00 0.00 0.00 0.00 0.00 0.00 0.01 0.06 0.04 0.00 0.00 0.00 0.04 0.04 0.02 0.00 0.00 0.01 0.00 0.00 0.00 0.00 0.00 0.00 0.01 0.00 0.00 0.00 0.00 0.00 0.00
0.00 0.00 0.00 0.00 0.00 0.00 0.00 0.00 0.00 0.00 0.00 0.00 0.00 0.00 0.00 0.00 0.00 0.00 0.00 0.01 0.02 0.01 0.00 0.00 0.00 0.00 0.01 0.00 0.00 0.00 0.00 0.00 0.00 0.00 0.00 0.00 0.00 0.05 0.04 0.00 0.00 0.00 0.00
0.00 0.00 0.00 0.00 0.00 0.00 0.00 0.00 0.00 0.00 0.00 0.00 0.00 0.00 0.00 0.01 0.00 0.00 0.01 0.00 0.00 0.00 0.01 0.00 0.00 0.00 0.00 0.00 0.00 0.00 0.00 0.00 0.00 0.00 0.00 0.00 0.00 0.02 0.16 0.10 0.00 0.00 0.00
0.00 0.00 0.00 0.00 0.00 0.00 0.00 0.00 0.00 0.00 0.00 0.00 0.00 0.00 0.00 0.01 0.00 0.00 0.01 0.00 0.00 0.00 0.00 0.00 0.01 0.00 0.00 0.00 0.00 0.00 0.00 0.00 0.00 0.00 0.00 0.00 0.02 0.01 0.03 0.19 0.19 0.03 0.00
0.00 0.00 0.00 0.00 0.00 0.00 0.00 0.00 0.00 0.00 0.00 0.00 0.00 0.00 0.00 0.00 0.00 0.00 0.05 0.01 0.00 0.00 0.00 0.00 0.00 0.00 0.00 0.00 0.00 0.00 0.00 0.00 0.00 0.00 0.00 0.00 0.02 0.02 0.01 0.03 0.16 0.22 0.16
0.00 0.00 0.00 0.00 0.00 0.00 0.00 0.00 0.00 0.00 0.00 0.00 0.00 0.00 0.01 0.00 0.00 0.02 0.06 0.00 0.00 0.00 0.05 0.01 0.00 0.00 0.00 0.00 0.00 0.00 0.00 0.00 0.00 0.00 0.00 0.00 0.01 0.01 0.02 0.01 0.02 0.05 0.21
0.00 0.00 0.00 0.00 0.00 0.00 0.00 0.00 0.00 0.00 0.00 0.00 0.00 0.00 0.00 0.01 0.00 0.02 0.02 0.00 0.00 0.00 0.02 0.00 0.00 0.00 0.00 0.00 0.00 0.00 0.00 0.00 0.00 0.00 0.00 0.00 0.00 0.00 0.01 0.02 0.02 0.02 0.03
0.00 0.00 0.00 0.00 0.00 0.00 0.00 0.00 0.00 0.00 0.00 0.00 0.00 0.00 0.00 0.00 0.00 0.00 0.00 0.00 0.00 0.01 0.00 0.00 0.00 0.00 0.00 0.00 0.00 0.00 0.00 0.00 0.00 0.00 0.00 0.00 0.00 0.00 0.00 0.00 0.00 0.01 0.00
0.00 0.00 0.00 0.00 0.00 0.00 0.00 0.00 0.00 0.00 0.00 0.00 0.00 0.00 0.00 0.00 0.00 0.00 0.00 0.00 0.00 0.00 0.00 0.00 0.00 0.00 0.00 0.00 0.00 0.00 0.00 0.00 0.00 0.00 0.00 0.00 0.00 0.00 0.00 0.00 0.00 0.00 0.01
0.00 0.00 0.00 0.00 0.00 0.00 0.00 0.00 0.00 0.00 0.00 0.00 0.00 0.00 0.00 0.00 0.00 0.00 0.00 0.00 0.00 0.00 0.00 0.00 0.00 0.00 0.00 0.00 0.00 0.00 0.00 0.00 0.00 0.00 0.00 0.00 0.00 0.00 0.00 0.00 0.00 0.00 0.01
0.00 0.00 0.00 0.00 0.00 0.00 0.00 0.00 0.00 0.00 0.00 0.00 0.00 0.00 0.00 0.00 0.00 0.00 0.00 0.00 0.00 0.00 0.00 0.00 0.00 0.00 0.00 0.00 0.00 0.00 0.00 0.00 0.00 0.00 0.00 0.00 0.00 0.00 0.00 0.00 0.00 0.00 0.00
0.00 0.00 0.00 0.00 0.00 0.00 0.00 0.00 0.00 0.00 0.00 0.00 0.00 0.00 0.00 0.00 0.00 0.00 0.00 0.00 0.00 0.00 0.00 0.00 0.00 0.00 0.00 0.00 0.00 0.00 0.00 0.00 0.00 0.00 0.00 0.00 0.00 0.00 0.00 0.00 0.00 0.00 0.00
0.00 0.00 0.00 0.00 0.00 0.00 0.00 0.00 0.00 0.00 0.00 0.00 0.00 0.00 0.00 0.00 0.00 0.00 0.00 0.00 0.00 0.00 0.00 0.00 0.00 0.00 0.00 0.00 0.00 0.00 0.00 0.00 0.00 0.00 0.00 0.00 0.00 0.00 0.00 0.00 0.00 0.00 0.00
0.00 0.00 0.00 0.00 0.00 0.00 0.00 0.00 0.00 0.00 0.00 0.00 0.00 0.00 0.00 0.00 0.00 0.00 0.00 0.00 0.00 0.00 0.00 0.00 0.00 0.00 0.00 0.00 0.00 0.00 0.00 0.00 0.00 0.00 0.00 0.00 0.00 0.00 0.00 0.00 0.00 0.00 0.00
0.00 0.00 0.00 0.00 0.00 0.00 0.00 0.00 0.00 0.00 0.00 0.00 0.00 0.00 0.00 0.00 0.00 0.00 0.00 0.00 0.00 0.00 0.00 0.00 0.00 0.00 0.00 0.00 0.00 0.00 0.00 0.00 0.00 0.00 0.00 0.00 0.00 0.00 0.00 0.00 0.00 0.00 0.00
MSLP
1013.56 1013.55 1013.72 1013.84 1014.04 1014.18 1014.33 1014.53 1014.65 1014.80 1015.00 1015.17 1015.27 1015.51 1015.74 1015.90 1016.11 1016.19 1016.20 1016.44 1016.53 1016.47 1016.41 1016.38 1016.29 1016.37 1016.59 1016.75 1016.78 1016.89 1016.92 1016.90 1016.95 1016.91 1017.03 1017.10 1017.22 1017.30 1017.28 1017.45 1017.53 1017.70 1017.74
1013.79 1013.95 1014.02 1014.13 1014.32 1014.46 1014.73 1014.86 1015.07 1015.25 1015.41 1015.52 1015.63 1015.88 1016.07 1016.17 1016.33 1016.40 1016.62 1016.78 1016.74 1016.65 1016.65 1016.61 1016.60 1016.68 1016.78 1016.91 1016.88 1016.87 1017.00 1016.96 1016.98 1016.94 1017.03 1017.21 1017.27 1017.39 1017.45 1017.61 1017.88 1017.93 1017.95
1014.11 1014.06 1014.10 1014.44 1014.69 1014.81 1015.08 1015.26 1015.47 1015.64 1015.71 1015.87 1015.94 1016.14 1016.26 1016.37 1016.56 1016.73 1016.90 1016.90 1016.88 1016.76 1016.74 1016.76 1016.80 1016.88 1016.93 1016.92 1016.88 1016.99 1016.92 1016.99 1017.07 1017.04 1017.19 1017.32 1017.25 1017.28 1017.52 1017.71 1017.93 1018.06 1018.19
1014.11 1014.32 1014.46 1014.69 1014.93 1015.06 1015.32 1015.55 1015.68 1015.80 1015.91 1016.07 1016.22 1016.38 1016.47 1016.58 1016.74 1016.89 1017.02 1017.05 1017.02 1016.98 1016.98 1016.98 1016.99 1017.00 1017.01 1016.93 1016.94 1016.82 1016.74 1016.77 1016.95 1017.12 1017.39 1017.39 1017.29 1017.39 1017.62 1017.86 1018.00 1018.18 1018.32
1014.31 1014.55 1014.73 1014.99 1015.20 1015.34 1015.59 1015.76 1015.85 1016.01 1016.14 1016.31 1016.50 1016.60 1016.71 1016.81 1016.97 1017.12 1017.17 1017.13 1017.08 1017.07 1016.98 1016.96 1016.99 1017.07 1017.11 1017.19 1017.07 1016.73 1016.65 1016.63 1016.69 1017.12 1017.56 1017.61 1017.50 1017.59 1017.76 1017.94 1018.25 1018.33 1018.59
1014.56 1014.70 1014.87 1015.10 1015.33 1015.59 1015.83 1015.98 1016.12 1016.21 1016.36 1016.55 1016.69 1016.74 1016.80 1016.99 1017.16 1017.27 1017.26 1017.21 1017.17 1017.08 1017.03 1016.95 1017.08 1017.19 1017.24 1017.25 1017.05 1016.72 1016.90 1016.93 1016.87 1017.30 1017.73 1017.75 1017.77 1017.76 1017.99 1018.12 1018.40 1018.55 1018.67
1014.80 1014.88 1015.06 1015.25 1015.44 1015.71 1015.95 1016.05 1016.26 1016.40 1016.56 1016.70 1016.78 1016.88 1017.03 1017.16 1017.28 1017.34 1017.35 1017.39 1017.30 1017.15 1017.08 1017.12 1017.20 1017.28 1017.31 1017.25 1017.08 1016.83 1017.00 1017.02 1017.31 1017.49 1017.93 1017.92 1017.95 1017.99 1018.19 1018.40 1018.55 1018.86 1018.90
1014.84 1015.07 1015.22 1015.38 1015.61 1015.83 1016.03 1016.17 1016.43 1016.59 1016.67 1016.75 1016.93 1016.99 1017.14 1017.29 1017.41 1017.45 1017.48 1017.48 1017.38 1017.22 1017.22 1017.26 1017.30 1017.32 1017.29 1017.21 1017.08 1016.98 1017.06 1017.42 1017.58 1017.74 1018.03 1018.20 1018.11 1018.20 1018.46 1018.62 1018.80 1019.14 1019.16
1014.86 1015.13 1015.38 1015.51 1015.71 1015.91 1016.08 1016.35 1016.58 1016.64 1016.76 1016.87 1017.00 1017.14 1017.26 1017.36 1017.42 1017.45 1017.49 1017.54 1017.39 1017.36 1017.33 1017.31 1017.38 1017.37 1017.33 1017.27 1017.17 1017.22 1017.35 1017.53 1018.00 1018.17 1018.19 1018.37 1018.28 1018.33 1018.50 1018.75 1018.97 1019.30 1019.43
1015.12 1015.21 1015.47 1015.66 1015.82 1016.03 1016.21 1016.39 1016.55 1016.68 1016.80 1016.88 1017.07 1017.16 1017.28 1017.39 1017.50 1017.52 1017.55 1017.59 1017.49 1017.43 1017.43 1017.48 1017.52 1017.46 1017.39 1017.37 1017.31 1017.30 1017.49 1017.71 1018.12 1018.25 1018.38 1018.55 1018.42 1018.41 1018.65 1018.89 1019.04 1019.26 1019.59
1015.31 1015.42 1015.53 1015.76 1015.92 1016.10 1016.25 1016.37 1016.47 1016.65 1016.76 1016.90 1017.07 1017.22 1017.32 1017.53 1017.60 1017.59 1017.65 1017.51 1017.47 1017.48 1017.40 1017.46 1017.47 1017.43 1017.36 1017.46 1017.37 1017.27 1017.55 1018.01 1018.08 1018.23 1018.35 1018.42 1018.46 1018.43 1018.62 1018.88 1019.21 1019.42 1019.62
1015.12 1015.41 1015.61 1015.70 1015.86 1016.13 1016.18 1016.36 1016.53 1016.71 1016.79 1016.98 1017.21 1017.37 1017.49 1017.60 1017.58 1017.59 1017.59 1017.39 1017.38 1017.36 1017.36 1017.31 1017.41 1017.34 1017.35 1017.53 1017.57 1017.36 1017.64 1018.16 1018.28 1018.32 1018.36 1018.28 1018.45 1018.47 1018.72 1018.98 1019.14 1019.41 1019.68
1014.67 1015.19 1015.46 1015.62 1015.73 1016.01 1016.05 1016.37 1016.56 1016.77 1016.86 1017.08 1017.34 1017.58 1017.75 1017.71 1017.77 1017.65 1017.74 1017.61 1017.59 1017.45 1017.50 1017.46 1017.38 1017.39 1017.51 1017.50 1017.43 1017.59 1017.68 1018.01 1018.27 1018.34 1018.37 1018.38 1018.37 1018.39 1018.59 1018.99 1019.26 1019.47 1019.62
1014.58 1014.81 1015.13 1015.28 1015.53 1015.91 1016.17 1016.29 1016.44 1016.77 1016.93 1017.14 1017.40 1017.60 1017.77 1017.81 1017.86 1017.81 1017.85 1017.76 1017.77 1017.68 1017.55 1017.54 1017.50 1017.36 1017.36 1017.48 1017.34 1017.61 1017.79 1017.94 1018.06 1018.06 1018.22 1018.31 1018.40 1018.51 1018.72 1018.93 1019.20 1019.43 1019.57
1014.01 1014.42 1014.76 1015.15 1015.43 1015.65 1016.04 1016.14 1016.41 1016.71 1016.88 1016.95 1017.18 1017.43 1017.54 1017.83 1017.81 1017.85 1017.75 1017.81 1017.79 1017.56 1017.62 1017.53 1017.52 1017.51 1017.63 1017.54 1017.69 1017.71 1017.71 1017.83 1017.95 1018.12 1018.31 1018.31 1018.42 1018.51 1018.54 1018.77 1019.05 1019.23 1019.44
1013.33 1013.81 1014.33 1014.78 1015.03 1015.36 1015.84 1015.90 1016.17 1016.50 1016.60 1016.81 1016.95 1016.95 1017.13 1017.35 1017.64 1017.83 1017.86 1017.66 1017.56 1017.37 1017.32 1017.53 1017.69 1017.76 1017.80 1017.61 1017.43 1017.82 1017.82 1017.89 1017.79 1018.08 1018.38 1018.45 1018.34 1018.39 1018.60 1018.76 1019.03 1019.16 1019.30
1012.56 1013.19 1013.79 1014.22 1014.55 1015.14 1015.42 1015.59 1015.98 1016.03 1016.21 1016.33 1016.38 1016.65 1016.83 1017.03 1017.39 1017.64 1017.92 1017.63 1017.42 1017.32 1017.34 1017.63 1017.83 1017.82 1017.69 1017.68 1017.81 1017.70 1017.94 1017.83 1017.91 1018.04 1018.25 1018.38 1018.37 1018.38 1018.47 1018.69 1018.80 1019.06 1019.25
1012.20 1012.69 1013.24 1013.80 1014.29 1014.68 1015.03 1015.26 1015.51 1015.68 1015.63 1015.65 1015.95 1016.18 1016.40 1016.71 1017.07 1017.54 1017.58 1017.52 1017.37 1017.35 1017.62 1017.77 1018.16 1018.13 1018.12 1018.16 1018.11 1018.05 1017.94 1017.62 1017.82 1018.06 1018.30 1018.43 1018.44 1018.52 1018.51 1018.60 1018.78 1018.97 1019.18
1011.40 1012.07 1012.78 1013.37 1013.89 1014.28 1014.63 1014.84 1015.07 1015.22 1015.25 1015.22 1015.62 1015.83 1016.02 1016.39 1016.78 1017.07 1017.18 1017.24 1017.33 1017.58 1017.66 1017.93 1018.23 1018.28 1018.41 1018.27 1018.31 1018.29 1018.26 1017.94 1017.72 1017.98 1018.25 1018.36 1018.37 1018.43 1018.56 1018.60 1018.67 1018.86 1019.10
1010.95 1011.62 1012.23 1012.77 1013.33 1013.85 1014.33 1014.76 1015.03 1015.26 1015.02 1015.05 1015.23 1015.58 1015.67 1016.06 1016.36 1016.75 1016.99 1017.15 1017.38 1017.75 1017.94 1018.17 1018.34 1018.49 1018.61 1018.62 1018.65 1018.64 1018.42 1018.26 1018.46 1018.07 1018.10 1018.16 1018.36 1018.46 1018.54 1018.71 1018.89 1018.92 1018.98
1010.63 1011.30 1011.83 1012.45 1012.86 1013.55 1014.17 1014.66 1015.17 1015.34 1015.33 1015.28 1015.25 1015.20 1015.42 1015.75 1016.11 1016.48 1016.81 1017.05 1017.35 1017.77 1018.00 1018.22 1018.47 1018.71 1018.96 1018.77 1019.03 1019.19 1018.99 1018.82 1018.68 1018.77 1018.49 1018.55 1018.56 1018.64 1018.78 1018.89 1018.97 1019.11 1019.07
1009.36 1010.18 1011.07 1011.58 1012.11 1012.64 1013.15 1013.65 1014.18 1014.51 1014.65 1014.77 1014.81 1015.01 1015.26 1015.64 1015.91 1016.16 1016.57 1017.03 1017.36 1017.75 1018.11 1018.35 1018.50 1019.01 1019.03 1018.93 1019.32 1019.81 1019.81 1019.55 1019.36 1019.09 1019.01 1019.16 1018.97 1018.87 1018.99 1019.17 1019.34 1019.50 1019.70
1008.85 1009.26 1009.80 1010.50 1011.24 1011.91 1012.44 1013.11 1013.84 1014.24 1014.46 1014.70 1014.85 1015.01 1015.11 1015.21 1015.47 1015.77 1016.17 1016.63 1017.12 1017.59 1017.92 1018.21 1018.29 1018.77 1019.14 1018.99 1018.92 1019.43 1020.29 1020.14 1019.95 1019.77 1019.57 1019.45 1019.58 1019.49 1019.46 1019.53 1019.63 1019.76 1019.94
1007.54 1008.37 1009.01 1009.71 1010.46 1011.25 1011.89 1012.44 1012.92 1013.35 1013.84 1014.11 1014.33 1014.47 1014.70 1014.79 1015.09 1015.39 1015.75 1016.17 1016.69 1017.14 1017.65 1017.85 1018.08 1018.48 1018.87 1019.28 1019.38 1019.42 1019.65 1019.81 1020.28 1020.71 1020.39 1020.07 1020.07 1020.07 1020.02 1019.85 1019.81 1019.85 1020.00
1006.48 1007.40 1008.17 1008.92 1009.64 1010.37 1011.13 1011.55 1012.23 1012.75 1012.94 1013.35 1013.81 1014.16 1014.36 1014.65 1014.73 1015.04 1015.39 1015.95 1016.57 1016.96 1017.20 1017.50 1017.99 1018.33 1018.71 1019.06 1019.38 1019.61 1019.81 1019.98 1020.15 1020.65 1020.95 1020.68 1020.60 1020.30 1020.20 1020.08 1020.02 1019.89 1019.97
1005.91 1006.67 1007.37 1008.14 1008.82 1009.55 1010.28 1010.78 1011.37 1011.94 1012.52 1013.17 1013.68 1014.04 1014.23 1014.41 1014.68 1014.82 1015.20 1015.74 1016.09 1016.62 1016.90 1017.26 1017.74 1018.25 1018.50 1018.67 1018.93 1019.29 1019.63 1019.95 1020.19 1020.42 1020.88 1020.86 1020.76 1020.38 1020.29 1020.15 1020.01 1019.95 1019.90
Thickness
5764 5765 5763 5762 5760 5760 5760 5759 5757 5755 5755 5754 5754 5751 5749 5748 5747 5745 5745 5743 5743 5744 5745 5746 5746 5746 5743 5740 5740 5739 5741 5742 5741 5741 5739 5738 5736 5734 5735 5736 5737 5739 5740
5765 5763 5762 5761 5759 5759 5758 5757 5755 5753 5752 5751 5751 5749 5747 5747 5745 5745 5743 5741 5743 5745 5745 5745 5745 5745 5743 5742 5742 5742 5743 5744 5744 5745 5743 5740 5738 5738 5736 5736 5735 5738 5739
5763 5764 5763 5760 5757 5757 5756 5754 5753 5751 5751 5750 5749 5748 5747 5746 5744 5743 5742 5742 5744 5745 5745 5745 5745 5745 5745 5745 5746 5744 5745 5745 5745 5744 5743 5743 5743 5740 5739 5738 5737 5737 5737
5764 5763 5763 5759 5757 5757 5755 5753 5752 5750 5751 5749 5748 5748 5747 5746 5744 5743 5742 5743 5744 5745 5745 5745 5746 5747 5747 5748 5748 5749 5749 5749 5747 5745 5743 5744 5745 5743 5741 5739 5738 5737 5737
5763 5762 5761 5757 5756 5755 5752 5751 5750 5750 5750 5749 5748 5748 5747 5746 5745 5743 5743 5744 5745 5745 5746 5747 5749 5748 5747 5747 5748 5750 5752 5751 5750 5746 5743 5743 5745 5744 5743 5741 5738 5737 5736
5764 5763 5759 5757 5755 5753 5751 5750 5750 5751 5750 5749 5748 5749 5749 5747 5745 5744 5745 5746 5746 5746 5746 5749 5749 5749 5748 5747 5748 5751 5750 5749 5750 5748 5742 5740 5743 5743 5741 5740 5737 5735 5735
5764 5762 5759 5757 5756 5754 5752 5752 5751 5751 5751 5750 5749 5750 5749 5747 5746 5745 5746 5745 5746 5748 5749 5751 5750 5748 5748 5748 5749 5750 5749 5748 5745 5744 5740 5739 5741 5742 5739 5737 5736 5733 5733
5764 5762 5760 5759 5757 5755 5754 5754 5752 5752 5752 5751 5750 5751 5749 5748 5746 5746 5746 5745 5746 5748 5749 5750 5750 5749 5748 5748 5748 5749 5746 5742 5740 5737 5736 5737 5738 5739 5737 5736 5734 5731 5732
5764 5762 5760 5759 5757 5756 5756 5755 5753 5753 5752 5752 5752 5751 5750 5749 5748 5747 5746 5746 5748 5749 5750 5751 5751 5750 5749 5748 5748 5747 5745 5742 5733 5731 5734 5736 5737 5737 5737 5735 5733 5730 5729
5764 5763 5761 5760 5759 5758 5758 5756 5755 5755 5754 5755 5754 5753 5751 5750 5749 5748 5748 5748 5749 5751 5752 5752 5752 5751 5750 5749 5749 5749 5745 5742 5738 5736 5736 5737 5738 5737 5736 5735 5733 5730 5728
5764 5764 5762 5761 5761 5760 5760 5758 5757 5757 5757 5756 5755 5754 5754 5753 5752 5751 5751 5751 5752 5753 5755 5755 5754 5754 5754 5752 5751 5751 5748 5745 5743 5741 5740 5738 5738 5737 5736 5734 5732 5730 5728
5763 5764 5765 5763 5762 5761 5761 5760 5760 5760 5760 5759 5757 5756 5756 5756 5756 5755 5755 5756 5756 5757 5758 5758 5757 5757 5757 5754 5753 5752 5749 5745 5743 5742 5742 5741 5739 5736 5734 5731 5731 5730 5728
5768 5766 5767 5766 5765 5764 5763 5763 5763 5762 5762 5761 5759 5758 5757 5757 5757 5758 5757 5758 5758 5759 5760 5759 5759 5760 5758 5757 5754 5752 5751 5747 5744 5743 5742 5740 5739 5737 5734 5731 5729 5729 5728
5768 5769 5770 5769 5768 5766 5765 5765 5765 5764 5764 5763 5761 5760 5759 5760 5759 5760 5759 5758 5759 5760 5761 5760 5760 5760 5759 5757 5757 5755 5753 5751 5748 5746 5745 5742 5739 5736 5733 5731 5729 5728 5727
5773 5773 5773 5772 5771 5769 5768 5769 5768 5766 5765 5766 5765 5762 5762 5761 5761 5761 5761 5760 5761 5761 5760 5760 5760 5759 5758 5758 5757 5756 5754 5753 5750 5747 5745 5742 5739 5737 5736 5733 5731 5729 5726
5781 5778 5777 5775 5774 5773 5772 5773 5771 5768 5768 5768 5768 5768 5767 5766 5764 5764 5763 5764 5764 5763 5762 5760 5758 5758 5758 5758 5758 5754 5754 5752 5752 5748 5744 5741 5739 5738 5735 5733 5731 5730 5727
5787 5785 5782 5780 5778 5777 5777 5775 5773 5773 5772 5773 5773 5772 5770 5768 5766 5766 5763 5765 5766 5766 5765 5762 5758 5758 5758 5758 5758 5756 5753 5753 5751 5748 5745 5743 5740 5738 5737 5734 5732 5730 5728
5792 5789 5788 5786 5783 5781 5780 5778 5777 5777 5777 5779 5778 5775 5774 5772 5771 5768 5767 5767 5767 5767 5764 5762 5758 5756 5755 5754 5754 5754 5754 5754 5752 5749 5746 5744 5742 5740 5738 5736 5733 5730 5728
5799 5795 5791 5789 5786 5785 5784 5783 5781 5780 5782 5783 5781 5780 5779 5776 5775 5773 5771 5769 5767 5764 5762 5760 5757 5755 5751 5752 5751 5752 5751 5752 5751 5749 5746 5744 5742 5740 5738 5736 5735 5732 5728
5802 5799 5796 5793 5791 5789 5787 5784 5783 5782 5785 5785 5784 5783 5784 5781 5779 5776 5773 5770 5767 5763 5759 5756 5753 5752 5749 5748 5748 5747 5747 5749 5746 5748 5746 5745 5742 5739 5737 5735 5734 5732 5730
5806 5801 5798 5794 5795 5792 5786 5783 5781 5781 5782 5784 5786 5787 5786 5783 5780 5777 5774 5771 5767 5762 5758 5755 5752 5748 5745 5746 5742 5739 5740 5742 5742 5740 5740 5739 5739 5737 5735 5733 5731 5730 5729
5816 5812 5805 5802 5801 5799 5797 5794 5790 5788 5789 5790 5789 5788 5786 5784 5781 5778 5775 5771 5766 5761 5757 5754 5751 5744 5743 5743 5736 5730 5724 5728 5732 5735 5734 5732 5733 5733 5732 5729 5727 5726 5723
5819 5820 5817 5812 5808 5804 5802 5798 5792 5791 5790 5788 5787 5787 5787 5785 5783 5780 5776 5771 5767 5762 5757 5755 5753 5747 5741 5743 5741 5731 5716 5715 5719 5726 5727 5728 5726 5726 5726 5725 5723 5721 5720
5829 5827 5824 5819 5813 5808 5806 5802 5799 5794 5790 5790 5790 5792 5790 5788 5785 5781 5777 5773 5768 5765 5760 5758 5756 5750 5746 5738 5736 5733 5728 5724 5712 5708 5716 5719 5720 5719 5719 5719 5719 5718 5716
5837 5832 5829 5823 5818 5814 5809 5807 5802 5798 5799 5796 5794 5792 5791 5790 5787 5782 5778 5774 5769 5766 5763 5760 5755 5751 5746 5739 5734 5730 5724 5718 5714 5708 5702 5707 5710 5713 5714 5714 5714 5714 5712
5840 5836 5833 5827 5822 5819 5813 5810 5806 5803 5797 5793 5791 5790 5790 5789 5787 5783 5779 5775 5772 5767 5764 5761 5757 5751 5747 5744 5739 5733 5725 5718 5711 5707 5702 5702 5702 5707 5708 5709 5708 5709 5707